Powrót do katalogu

STARLINK-11203

AktywnyŁącznośćVLEO
NORAD 60117·PAYLOAD·🇺🇸 United States

Wystrzelony Jun 24, 2024 z Vandenberg Space Force Base

Loading…

Następne Przeloty (najbliższe 24 godziny)

TLE

ŚwieżeSource: CelesTrak SupGP

Epoka: Sep 15, 2026, 02:26 UTC

1 60117C 24118E   26258.10187500 -.00043323  00000+0 -35686-3 0  2581
2 60117  53.1572   7.6147 0001023  95.1130 186.7940 15.69731171    17

Śledź STARLINK-11203 w czasie rzeczywistym z AllMySat

Download on the App Store